owner,sensor,date,latitude,longitude,vertical_datum,direction_of_sea_water_velocity,sea_water_speed,upward_sea_water_velocity,qcFlag 
TABS,ioos:station:wmo:42051:1,2017-03-01T00:00:00Z,29.6350,-93.6417,2.0,269.3179473,15.9711302,-99999.0,'11111222,11111222,99999999' 
TABS,ioos:station:wmo:42051:1,2017-03-01T00:30:00Z,29.6350,-93.6417,2.0,260.6901981,17.24715919,-99999.0,'11111222,11111222,99999999' 
TABS,ioos:station:wmo:42051:1,2017-03-01T01:00:00Z,29.6350,-93.6417,2.0,273.0029587,14.70018027,-99999.0,'11111222,11111222,99999999' 
TABS,ioos:station:wmo:42051:1,2017-03-01T01:30:00Z,29.6350,-93.6417,2.0,268.4848072,14.37502348,-99999.0,'11111222,11111222,99999999' 
TABS,ioos:station:wmo:42051:1,2017-03-01T02:00:00Z,29.6350,-93.6417,2.0,268.9856027,10.1715928,-99999.0,'11111222,11111222,99999999' 
TABS,ioos:station:wmo:42051:1,2017-03-01T02:30:00Z,29.6350,-93.6417,2.0,274.5613555,10.56345114,-99999.0,'11111222,11111222,99999999' 
TABS,ioos:station:wmo:42051:1,2017-03-01T03:00:00Z,29.6350,-93.6417,2.0,265.7811034,15.36161775,-99999.0,'11111222,11111222,99999999' 
TABS,ioos:station:wmo:42051:1,2017-03-01T03:30:00Z,29.6350,-93.6417,2.0,273.5244413,13.66584063,-99999.0,'11111222,11111222,99999999' 
TABS,ioos:station:wmo:42051:1,2017-03-01T04:00:00Z,29.6350,-93.6417,2.0,267.4537534,12.38222113,-99999.0,'11111222,11111222,99999999' 
TABS,ioos:station:wmo:42051:1,2017-03-01T04:30:00Z,29.6350,-93.6417,2.0,254.7131649,11.22722138,-99999.0,'11111222,11111222,99999999' 
TABS,ioos:station:wmo:42051:1,2017-03-01T05:00:00Z,29.6350,-93.6417,2.0,266.3163731,9.028648847,-99999.0,'11133222,11111222,99999999' 
TABS,ioos:station:wmo:42051:1,2017-03-01T05:30:00Z,29.6350,-93.6417,2.0,270.0744463,7.74000646,-99999.0,'11133222,11111222,99999999' 
TABS,ioos:station:wmo:42051:1,2017-03-01T06:00:00Z,29.6350,-93.6417,2.0,264.1060636,12.46588946,-99999.0,'11111222,11111222,99999999' 
TABS,ioos:station:wmo:42051:1,2017-03-01T06:30:00Z,29.6350,-93.6417,2.0,262.6106943,11.04168918,-99999.0,'11111222,11111222,99999999' 
TABS,ioos:station:wmo:42051:1,2017-03-01T07:00:00Z,29.6350,-93.6417,2.0,274.3226879,10.34943477,-99999.0,'11111222,11111222,99999999' 
TABS,ioos:station:wmo:42051:1,2017-03-01T07:30:00Z,29.6350,-93.6417,2.0,297.1292636,8.179932763,-99999.0,'11133222,11111222,99999999' 
TABS,ioos:station:wmo:42051:1,2017-03-01T08:00:00Z,29.6350,-93.6417,2.0,291.5917688,14.18536217,-99999.0,'11111222,11111222,99999999' 
TABS,ioos:station:wmo:42051:1,2017-03-01T08:30:00Z,29.6350,-93.6417,2.0,275.7843469,13.9912294,-99999.0,'11111222,11111222,99999999' 
TABS,ioos:station:wmo:42051:1,2017-03-01T09:00:00Z,29.6350,-93.6417,2.0,276.2850167,14.79893577,-99999.0,'11111222,11111222,99999999' 
TABS,ioos:station:wmo:42051:1,2017-03-01T09:30:00Z,29.6350,-93.6417,2.0,283.4369406,18.07474481,-99999.0,'11111222,11111222,99999999' 
TABS,ioos:station:wmo:42051:1,2017-03-01T10:00:00Z,29.6350,-93.6417,2.0,279.8316938,19.91241824,-99999.0,'11111222,11111222,99999999' 
TABS,ioos:station:wmo:42051:1,2017-03-01T10:30:00Z,29.6350,-93.6417,2.0,262.480142,19.6388849,-99999.0,'11111222,11111222,99999999' 
TABS,ioos:station:wmo:42051:1,2017-03-01T11:00:00Z,29.6350,-93.6417,2.0,244.1033804,17.24125865,-99999.0,'11111222,11111222,99999999' 
TABS,ioos:station:wmo:42051:1,2017-03-01T11:30:00Z,29.6350,-93.6417,2.0,261.9009136,15.47432713,-99999.0,'11111222,11111222,99999999' 
TABS,ioos:station:wmo:42051:1,2017-03-01T12:00:00Z,29.6350,-93.6417,2.0,249.1486737,14.55308902,-99999.0,'11111222,11111222,99999999' 
TABS,ioos:station:wmo:42051:1,2017-03-01T12:30:00Z,29.6350,-93.6417,2.0,240.0493573,15.2228808,-99999.0,'11111222,11111222,99999999' 
TABS,ioos:station:wmo:42051:1,2017-03-01T13:00:00Z,29.6350,-93.6417,2.0,240.6542493,12.63076403,-99999.0,'11111222,11111222,99999999' 
TABS,ioos:station:wmo:42051:1,2017-03-01T13:30:00Z,29.6350,-93.6417,2.0,215.3462318,13.24067974,-99999.0,'11111222,11111222,99999999' 
TABS,ioos:station:wmo:42051:1,2017-03-01T14:00:00Z,29.6350,-93.6417,2.0,228.9627113,14.83521823,-99999.0,'11111222,11111222,99999999' 
TABS,ioos:station:wmo:42051:1,2017-03-01T14:30:00Z,29.6350,-93.6417,2.0,235.1123425,23.76022306,-99999.0,'11111222,11111222,99999999' 
TABS,ioos:station:wmo:42051:1,2017-03-01T15:00:00Z,29.6350,-93.6417,2.0,224.2377225,22.33240695,-99999.0,'11111222,11111222,99999999' 
TABS,ioos:station:wmo:42051:1,2017-03-01T15:30:00Z,29.6350,-93.6417,2.0,226.9247035,21.26055738,-99999.0,'11111222,11111222,99999999' 
TABS,ioos:station:wmo:42051:1,2017-03-01T16:00:00Z,29.6350,-93.6417,2.0,226.5812158,16.39698143,-99999.0,'11111222,11111222,99999999' 
TABS,ioos:station:wmo:42051:1,2017-03-01T16:30:00Z,29.6350,-93.6417,2.0,227.1601322,12.19211631,-99999.0,'11111222,11111222,99999999' 
TABS,ioos:station:wmo:42051:1,2017-03-01T17:00:00Z,29.6350,-93.6417,2.0,225.8863319,11.88081647,-99999.0,'11111222,11111222,99999999' 
TABS,ioos:station:wmo:42051:1,2017-03-01T17:30:00Z,29.6350,-93.6417,2.0,222.4349271,12.16735386,-99999.0,'11111222,11111222,99999999' 
TABS,ioos:station:wmo:42051:1,2017-03-01T18:00:00Z,29.6350,-93.6417,2.0,277.2875471,10.95851267,-99999.0,'11111222,11111222,99999999' 
TABS,ioos:station:wmo:42051:1,2017-03-01T18:30:00Z,29.6350,-93.6417,2.0,287.3895358,12.64805519,-99999.0,'11111222,11111222,99999999' 
TABS,ioos:station:wmo:42051:1,2017-03-01T19:00:00Z,29.6350,-93.6417,2.0,280.43457,13.4727911,-99999.0,'11111222,11111222,99999999' 
TABS,ioos:station:wmo:42051:1,2017-03-01T19:30:00Z,29.6350,-93.6417,2.0,288.5354937,18.08825586,-99999.0,'11111222,11111222,99999999' 
TABS,ioos:station:wmo:42051:1,2017-03-01T20:00:00Z,29.6350,-93.6417,2.0,289.6989962,16.34662656,-99999.0,'11111222,11111222,99999999' 
TABS,ioos:station:wmo:42051:1,2017-03-01T20:30:00Z,29.6350,-93.6417,2.0,288.274835,16.9340633,-99999.0,'11111222,11111222,99999999' 
TABS,ioos:station:wmo:42051:1,2017-03-01T21:00:00Z,29.6350,-93.6417,2.0,296.953508,17.82634287,-99999.0,'11111222,11111222,99999999' 
TABS,ioos:station:wmo:42051:1,2017-03-01T21:30:00Z,29.6350,-93.6417,2.0,298.9312248,14.84225387,-99999.0,'11111222,11111222,99999999' 
TABS,ioos:station:wmo:42051:1,2017-03-01T22:00:00Z,29.6350,-93.6417,2.0,309.7701147,14.3503763,-99999.0,'11111222,11111222,99999999' 
TABS,ioos:station:wmo:42051:1,2017-03-01T22:30:00Z,29.6350,-93.6417,2.0,292.1534291,13.31274953,-99999.0,'11111222,11111222,99999999' 
TABS,ioos:station:wmo:42051:1,2017-03-01T23:00:00Z,29.6350,-93.6417,2.0,283.7250267,13.82473508,-99999.0,'11111222,11111222,99999999' 
TABS,ioos:station:wmo:42051:1,2017-03-01T23:30:00Z,29.6350,-93.6417,2.0,257.5996126,12.06136394,-99999.0,'11111222,11111222,99999999' 
TABS,ioos:station:wmo:42051:1,2017-03-02T00:00:00Z,29.6350,-93.6417,2.0,246.558981,10.256437,-99999.0,'11111222,11111222,99999999' 
TABS,ioos:station:wmo:42051:1,2017-03-02T00:30:00Z,29.6350,-93.6417,2.0,234.9265694,15.05340161,-99999.0,'11111222,11111222,99999999' 
TABS,ioos:station:wmo:42051:1,2017-03-02T01:00:00Z,29.6350,-93.6417,2.0,223.2755868,14.80644792,-99999.0,'11111222,11111222,99999999' 
TABS,ioos:station:wmo:42051:1,2017-03-02T01:30:00Z,29.6350,-93.6417,2.0,218.8167686,17.06985647,-99999.0,'11111222,11111222,99999999' 
TABS,ioos:station:wmo:42051:1,2017-03-02T02:00:00Z,29.6350,-93.6417,2.0,221.8313801,15.60849128,-99999.0,'11111222,11111222,99999999' 
TABS,ioos:station:wmo:42051:1,2017-03-02T02:30:00Z,29.6350,-93.6417,2.0,224.2231628,21.39194475,-99999.0,'11111222,11111222,99999999' 
TABS,ioos:station:wmo:42051:1,2017-03-02T03:00:00Z,29.6350,-93.6417,2.0,237.4399981,22.35322124,-99999.0,'11111222,11111222,99999999' 
TABS,ioos:station:wmo:42051:1,2017-03-02T03:30:00Z,29.6350,-93.6417,2.0,231.2019611,22.71085423,-99999.0,'11111222,11111222,99999999' 
TABS,ioos:station:wmo:42051:1,2017-03-02T04:00:00Z,29.6350,-93.6417,2.0,235.4371353,21.3112787,-99999.0,'11111222,11111222,99999999' 
TABS,ioos:station:wmo:42051:1,2017-03-02T04:30:00Z,29.6350,-93.6417,2.0,246.3161227,19.39334164,-99999.0,'11111222,11111222,99999999' 
TABS,ioos:station:wmo:42051:1,2017-03-02T05:00:00Z,29.6350,-93.6417,2.0,249.8336587,18.73872194,-99999.0,'11111222,11111222,99999999' 
TABS,ioos:station:wmo:42051:1,2017-03-02T05:30:00Z,29.6350,-93.6417,2.0,251.3655004,13.64531055,-99999.0,'11111222,11111222,99999999' 
TABS,ioos:station:wmo:42051:1,2017-03-02T06:00:00Z,29.6350,-93.6417,2.0,257.1770305,12.48125795,-99999.0,'11111222,11111222,99999999' 
TABS,ioos:station:wmo:42051:1,2017-03-02T06:30:00Z,29.6350,-93.6417,2.0,259.9507172,15.4165009,-99999.0,'11111222,11111222,99999999' 
TABS,ioos:station:wmo:42051:1,2017-03-02T07:00:00Z,29.6350,-93.6417,2.0,259.7072995,16.34297403,-99999.0,'11111222,11111222,99999999' 
TABS,ioos:station:wmo:42051:1,2017-03-02T07:30:00Z,29.6350,-93.6417,2.0,274.9733609,15.45818877,-99999.0,'11111222,11111222,99999999' 
TABS,ioos:station:wmo:42051:1,2017-03-02T08:00:00Z,29.6350,-93.6417,2.0,271.5023407,16.40563623,-99999.0,'11111222,11111222,99999999' 
TABS,ioos:station:wmo:42051:1,2017-03-02T08:30:00Z,29.6350,-93.6417,2.0,277.5255355,16.34073438,-99999.0,'11111222,11111222,99999999' 
TABS,ioos:station:wmo:42051:1,2017-03-02T09:00:00Z,29.6350,-93.6417,2.0,274.5381828,17.06348733,-99999.0,'11111222,11111222,99999999' 
TABS,ioos:station:wmo:42051:1,2017-03-02T09:30:00Z,29.6350,-93.6417,2.0,284.8755975,18.38617143,-99999.0,'11111222,11111222,99999999' 
TABS,ioos:station:wmo:42051:1,2017-03-02T10:00:00Z,29.6350,-93.6417,2.0,284.5005538,20.96789212,-99999.0,'11111222,11111222,99999999' 
TABS,ioos:station:wmo:42051:1,2017-03-02T10:30:00Z,29.6350,-93.6417,2.0,280.5299012,20.30186445,-99999.0,'11111222,11111222,99999999' 
TABS,ioos:station:wmo:42051:1,2017-03-02T11:00:00Z,29.6350,-93.6417,2.0,271.3018518,25.09647386,-99999.0,'11111222,11111222,99999999' 
TABS,ioos:station:wmo:42051:1,2017-03-02T11:30:00Z,29.6350,-93.6417,2.0,257.3512232,51.97122762,-99999.0,'11111222,11111222,99999999' 
TABS,ioos:station:wmo:42051:1,2017-03-02T12:00:00Z,29.6350,-93.6417,2.0,265.6417705,45.14050288,-99999.0,'11111222,11111222,99999999' 
TABS,ioos:station:wmo:42051:1,2017-03-02T12:30:00Z,29.6350,-93.6417,2.0,270.8154876,38.66391211,-99999.0,'11111222,11111222,99999999' 
TABS,ioos:station:wmo:42051:1,2017-03-02T13:00:00Z,29.6350,-93.6417,2.0,263.8911022,46.42358452,-99999.0,'11111222,11111222,99999999' 
TABS,ioos:station:wmo:42051:1,2017-03-02T13:30:00Z,29.6350,-93.6417,2.0,268.8848635,43.17817157,-99999.0,'11111222,11111222,99999999' 
TABS,ioos:station:wmo:42051:1,2017-03-02T14:00:00Z,29.6350,-93.6417,2.0,268.3547392,43.54794369,-99999.0,'11111222,11111222,99999999' 
TABS,ioos:station:wmo:42051:1,2017-03-02T14:30:00Z,29.6350,-93.6417,2.0,264.7907827,43.28876298,-99999.0,'11111222,11111222,99999999' 
TABS,ioos:station:wmo:42051:1,2017-03-02T15:00:00Z,29.6350,-93.6417,2.0,257.6566225,53.84459211,-99999.0,'11111222,11111222,99999999' 
TABS,ioos:station:wmo:42051:1,2017-03-02T15:30:00Z,29.6350,-93.6417,2.0,258.5176146,53.55171332,-99999.0,'11111222,11111222,99999999' 
TABS,ioos:station:wmo:42051:1,2017-03-02T16:00:00Z,29.6350,-93.6417,2.0,261.6558833,42.86369676,-99999.0,'11111222,11111222,99999999' 
TABS,ioos:station:wmo:42051:1,2017-03-02T16:30:00Z,29.6350,-93.6417,2.0,265.528644,37.71476634,-99999.0,'11111222,11111222,99999999' 
TABS,ioos:station:wmo:42051:1,2017-03-02T17:00:00Z,29.6350,-93.6417,2.0,267.66282,43.1658951,-99999.0,'11111222,11111222,99999999' 
TABS,ioos:station:wmo:42051:1,2017-03-02T17:30:00Z,29.6350,-93.6417,2.0,262.0119038,42.67402606,-99999.0,'11111222,11111222,99999999' 
TABS,ioos:station:wmo:42051:1,2017-03-02T18:00:00Z,29.6350,-93.6417,2.0,261.4446743,31.66228356,-99999.0,'11111222,11111222,99999999' 
TABS,ioos:station:wmo:42051:1,2017-03-02T18:30:00Z,29.6350,-93.6417,2.0,268.4169081,39.46505543,-99999.0,'11111222,11111222,99999999' 
TABS,ioos:station:wmo:42051:1,2017-03-02T19:00:00Z,29.6350,-93.6417,2.0,266.8604888,42.91439153,-99999.0,'11111222,11111222,99999999' 
TABS,ioos:station:wmo:42051:1,2017-03-02T19:30:00Z,29.6350,-93.6417,2.0,263.3188463,35.67222169,-99999.0,'11111222,11111222,99999999' 
TABS,ioos:station:wmo:42051:1,2017-03-02T20:00:00Z,29.6350,-93.6417,2.0,258.2041284,60.17059082,-99999.0,'11111222,11111222,99999999' 
TABS,ioos:station:wmo:42051:1,2017-03-02T20:30:00Z,29.6350,-93.6417,2.0,257.6590072,57.78516246,-99999.0,'11111222,11111222,99999999' 
TABS,ioos:station:wmo:42051:1,2017-03-02T21:00:00Z,29.6350,-93.6417,2.0,257.9598434,61.12455235,-99999.0,'11111222,11111222,99999999' 
TABS,ioos:station:wmo:42051:1,2017-03-02T21:30:00Z,29.6350,-93.6417,2.0,257.4971799,56.54076052,-99999.0,'11111222,11111222,99999999' 
TABS,ioos:station:wmo:42051:1,2017-03-02T22:00:00Z,29.6350,-93.6417,2.0,255.4327311,46.87687063,-99999.0,'11111222,11111222,99999999' 
TABS,ioos:station:wmo:42051:1,2017-03-02T22:30:00Z,29.6350,-93.6417,2.0,256.9952511,66.12593515,-99999.0,'11111222,11111222,99999999' 
TABS,ioos:station:wmo:42051:1,2017-03-02T23:00:00Z,29.6350,-93.6417,2.0,258.0068948,50.19556654,-99999.0,'11111222,11111222,99999999' 
TABS,ioos:station:wmo:42051:1,2017-03-02T23:30:00Z,29.6350,-93.6417,2.0,264.7750764,34.48325971,-99999.0,'11111222,11111222,99999999' 
TABS,ioos:station:wmo:42051:1,2017-03-03T00:00:00Z,29.6350,-93.6417,2.0,255.9965295,41.90531231,-99999.0,'11111222,11111222,99999999' 
TABS,ioos:station:wmo:42051:1,2017-03-03T00:30:00Z,29.6350,-93.6417,2.0,255.9633684,32.90238289,-99999.0,'11111222,11111222,99999999' 
TABS,ioos:station:wmo:42051:1,2017-03-03T01:00:00Z,29.6350,-93.6417,2.0,249.8133221,31.55846162,-99999.0,'11111222,11111222,99999999' 
TABS,ioos:station:wmo:42051:1,2017-03-03T01:30:00Z,29.6350,-93.6417,2.0,248.8486769,30.09758296,-99999.0,'11111222,11111222,99999999' 
TABS,ioos:station:wmo:42051:1,2017-03-03T02:00:00Z,29.6350,-93.6417,2.0,243.1960252,32.22201887,-99999.0,'11111222,11111222,99999999' 
TABS,ioos:station:wmo:42051:1,2017-03-03T02:30:00Z,29.6350,-93.6417,2.0,244.8944401,40.37413157,-99999.0,'11111222,11111222,99999999' 
TABS,ioos:station:wmo:42051:1,2017-03-03T03:00:00Z,29.6350,-93.6417,2.0,242.0262896,38.75829331,-99999.0,'11111222,11111222,99999999' 
TABS,ioos:station:wmo:42051:1,2017-03-03T03:30:00Z,29.6350,-93.6417,2.0,248.8036922,34.79382129,-99999.0,'11111222,11111222,99999999' 
TABS,ioos:station:wmo:42051:1,2017-03-03T04:00:00Z,29.6350,-93.6417,2.0,246.4822876,31.62695686,-99999.0,'11111222,11111222,99999999' 
TABS,ioos:station:wmo:42051:1,2017-03-03T04:30:00Z,29.6350,-93.6417,2.0,240.2231472,29.21762653,-99999.0,'11111222,11111222,99999999' 
TABS,ioos:station:wmo:42051:1,2017-03-03T05:00:00Z,29.6350,-93.6417,2.0,239.849303,30.32229048,-99999.0,'11111222,11111222,99999999' 
TABS,ioos:station:wmo:42051:1,2017-03-03T05:30:00Z,29.6350,-93.6417,2.0,236.3265668,37.44226489,-99999.0,'11111222,11111222,99999999' 
TABS,ioos:station:wmo:42051:1,2017-03-03T06:00:00Z,29.6350,-93.6417,2.0,234.2033791,39.92100825,-99999.0,'11111222,11111222,99999999' 
TABS,ioos:station:wmo:42051:1,2017-03-03T06:30:00Z,29.6350,-93.6417,2.0,252.801477,32.67077746,-99999.0,'11111222,11111222,99999999' 
TABS,ioos:station:wmo:42051:1,2017-03-03T07:00:00Z,29.6350,-93.6417,2.0,261.5276203,28.91552524,-99999.0,'11111222,11111222,99999999' 
TABS,ioos:station:wmo:42051:1,2017-03-03T07:30:00Z,29.6350,-93.6417,2.0,269.4489878,35.38163365,-99999.0,'11111222,11111222,99999999' 
TABS,ioos:station:wmo:42051:1,2017-03-03T08:00:00Z,29.6350,-93.6417,2.0,257.9478558,39.08137664,-99999.0,'11111222,11111222,99999999' 
TABS,ioos:station:wmo:42051:1,2017-03-03T08:30:00Z,29.6350,-93.6417,2.0,267.3976979,38.54974189,-99999.0,'11111222,11111222,99999999' 
TABS,ioos:station:wmo:42051:1,2017-03-03T09:00:00Z,29.6350,-93.6417,2.0,261.8694957,32.38549058,-99999.0,'11111222,11111222,99999999' 
TABS,ioos:station:wmo:42051:1,2017-03-03T09:30:00Z,29.6350,-93.6417,2.0,262.0252335,40.5824223,-99999.0,'11111222,11111222,99999999' 
TABS,ioos:station:wmo:42051:1,2017-03-03T10:00:00Z,29.6350,-93.6417,2.0,256.9315243,48.51647658,-99999.0,'11111222,11111222,99999999' 
TABS,ioos:station:wmo:42051:1,2017-03-03T10:30:00Z,29.6350,-93.6417,2.0,255.7197434,57.61000781,-99999.0,'11111222,11111222,99999999' 
TABS,ioos:station:wmo:42051:1,2017-03-03T11:00:00Z,29.6350,-93.6417,2.0,260.4893312,47.14800208,-99999.0,'11111222,11111222,99999999' 
TABS,ioos:station:wmo:42051:1,2017-03-03T11:30:00Z,29.6350,-93.6417,2.0,264.5463539,46.29954751,-99999.0,'11111222,11111222,99999999' 
TABS,ioos:station:wmo:42051:1,2017-03-03T12:00:00Z,29.6350,-93.6417,2.0,264.6773377,49.91519708,-99999.0,'11111222,11111222,99999999' 
TABS,ioos:station:wmo:42051:1,2017-03-03T12:30:00Z,29.6350,-93.6417,2.0,263.0774349,37.83579258,-99999.0,'11111222,11111222,99999999' 
TABS,ioos:station:wmo:42051:1,2017-03-03T13:00:00Z,29.6350,-93.6417,2.0,265.9800775,43.22632647,-99999.0,'11111222,11111222,99999999' 
TABS,ioos:station:wmo:42051:1,2017-03-03T13:30:00Z,29.6350,-93.6417,2.0,266.6864301,44.81490489,-99999.0,'11111222,11111222,99999999' 
TABS,ioos:station:wmo:42051:1,2017-03-03T14:00:00Z,29.6350,-93.6417,2.0,257.5553449,36.75348283,-99999.0,'11111222,11111222,99999999' 
TABS,ioos:station:wmo:42051:1,2017-03-03T14:30:00Z,29.6350,-93.6417,2.0,268.0585242,45.46608846,-99999.0,'11111222,11111222,99999999' 
TABS,ioos:station:wmo:42051:1,2017-03-03T15:00:00Z,29.6350,-93.6417,2.0,262.5098762,38.97250313,-99999.0,'11111222,11111222,99999999' 
TABS,ioos:station:wmo:42051:1,2017-03-03T15:30:00Z,29.6350,-93.6417,2.0,266.2054236,34.45551915,-99999.0,'11111222,11111222,99999999' 
TABS,ioos:station:wmo:42051:1,2017-03-03T16:00:00Z,29.6350,-93.6417,2.0,260.3651512,44.87290608,-99999.0,'11111222,11111222,99999999' 
TABS,ioos:station:wmo:42051:1,2017-03-03T16:30:00Z,29.6350,-93.6417,2.0,262.665368,37.36571289,-99999.0,'11111222,11111222,99999999' 
TABS,ioos:station:wmo:42051:1,2017-03-03T17:00:00Z,29.6350,-93.6417,2.0,268.295393,37.99680644,-99999.0,'11111222,11111222,99999999' 
TABS,ioos:station:wmo:42051:1,2017-03-03T17:30:00Z,29.6350,-93.6417,2.0,265.7033021,42.04815573,-99999.0,'11111222,11111222,99999999' 
TABS,ioos:station:wmo:42051:1,2017-03-03T18:00:00Z,29.6350,-93.6417,2.0,264.0673769,42.96005703,-99999.0,'11111222,11111222,99999999' 
TABS,ioos:station:wmo:42051:1,2017-03-03T18:30:00Z,29.6350,-93.6417,2.0,263.9518366,40.24398092,-99999.0,'11111222,11111222,99999999' 
TABS,ioos:station:wmo:42051:1,2017-03-03T19:00:00Z,29.6350,-93.6417,2.0,265.6269177,38.82300478,-99999.0,'11111222,11111222,99999999' 
TABS,ioos:station:wmo:42051:1,2017-03-03T19:30:00Z,29.6350,-93.6417,2.0,264.3709715,38.94778556,-99999.0,'11111222,11111222,99999999' 
TABS,ioos:station:wmo:42051:1,2017-03-03T20:00:00Z,29.6350,-93.6417,2.0,263.7218138,35.48277469,-99999.0,'11111222,11111222,99999999' 
TABS,ioos:station:wmo:42051:1,2017-03-03T20:30:00Z,29.6350,-93.6417,2.0,264.0796821,35.68028167,-99999.0,'11111222,11111222,99999999' 
TABS,ioos:station:wmo:42051:1,2017-03-03T21:00:00Z,29.6350,-93.6417,2.0,269.0425319,38.91542882,-99999.0,'11111222,11111222,99999999' 
TABS,ioos:station:wmo:42051:1,2017-03-03T21:30:00Z,29.6350,-93.6417,2.0,270.3122309,36.75054421,-99999.0,'11111222,11111222,99999999' 
TABS,ioos:station:wmo:42051:1,2017-03-03T22:00:00Z,29.6350,-93.6417,2.0,274.6214439,36.36821964,-99999.0,'11111222,11111222,99999999' 
TABS,ioos:station:wmo:42051:1,2017-03-03T22:30:00Z,29.6350,-93.6417,2.0,277.7235786,35.64332336,-99999.0,'11111222,11111222,99999999' 
TABS,ioos:station:wmo:42051:1,2017-03-03T23:00:00Z,29.6350,-93.6417,2.0,276.4152728,38.12872539,-99999.0,'11111222,11111222,99999999' 
TABS,ioos:station:wmo:42051:1,2017-03-03T23:30:00Z,29.6350,-93.6417,2.0,279.6779913,39.38041137,-99999.0,'11111222,11111222,99999999' 
TABS,ioos:station:wmo:42051:1,2017-03-04T00:00:00Z,29.6350,-93.6417,2.0,271.9362011,27.23554295,-99999.0,'11111222,11111222,99999999' 
TABS,ioos:station:wmo:42051:1,2017-03-04T00:30:00Z,29.6350,-93.6417,2.0,272.72325,31.36541089,-99999.0,'11111222,11111222,99999999' 
TABS,ioos:station:wmo:42051:1,2017-03-04T01:00:00Z,29.6350,-93.6417,2.0,274.2159822,34.55348318,-99999.0,'11111222,11111222,99999999' 
TABS,ioos:station:wmo:42051:1,2017-03-04T01:30:00Z,29.6350,-93.6417,2.0,271.617673,34.72383187,-99999.0,'11111222,11111222,99999999' 
TABS,ioos:station:wmo:42051:1,2017-03-04T02:00:00Z,29.6350,-93.6417,2.0,270.2555026,29.20028938,-99999.0,'11111222,11111222,99999999' 
TABS,ioos:station:wmo:42051:1,2017-03-04T02:30:00Z,29.6350,-93.6417,2.0,276.4947031,29.97232891,-99999.0,'11111222,11111222,99999999' 
TABS,ioos:station:wmo:42051:1,2017-03-04T03:00:00Z,29.6350,-93.6417,2.0,270.4883511,30.53110709,-99999.0,'11111222,11111222,99999999' 
TABS,ioos:station:wmo:42051:1,2017-03-04T03:30:00Z,29.6350,-93.6417,2.0,266.2258498,30.23555854,-99999.0,'11111222,11111222,99999999' 
TABS,ioos:station:wmo:42051:1,2017-03-04T04:00:00Z,29.6350,-93.6417,2.0,265.4297134,28.23977691,-99999.0,'11111222,11111222,99999999' 
TABS,ioos:station:wmo:42051:1,2017-03-04T04:30:00Z,29.6350,-93.6417,2.0,263.3720513,29.2857047,-99999.0,'11111222,11111222,99999999' 
TABS,ioos:station:wmo:42051:1,2017-03-04T05:00:00Z,29.6350,-93.6417,2.0,268.1063774,26.33437487,-99999.0,'11111222,11111222,99999999' 
TABS,ioos:station:wmo:42051:1,2017-03-04T05:30:00Z,29.6350,-93.6417,2.0,267.3134153,22.40461783,-99999.0,'11111222,11111222,99999999' 
TABS,ioos:station:wmo:42051:1,2017-03-04T06:00:00Z,29.6350,-93.6417,2.0,261.6353457,20.41717169,-99999.0,'11111222,11111222,99999999' 
TABS,ioos:station:wmo:42051:1,2017-03-04T06:30:00Z,29.6350,-93.6417,2.0,260.6531681,16.25580512,-99999.0,'11111222,11111222,99999999' 
TABS,ioos:station:wmo:42051:1,2017-03-04T07:00:00Z,29.6350,-93.6417,2.0,260.5826078,18.70203465,-99999.0,'11111222,11111222,99999999' 
TABS,ioos:station:wmo:42051:1,2017-03-04T07:30:00Z,29.6350,-93.6417,2.0,270.6563241,17.47114478,-99999.0,'11111222,11111222,99999999' 
TABS,ioos:station:wmo:42051:1,2017-03-04T08:00:00Z,29.6350,-93.6417,2.0,271.4210003,14.9245871,-99999.0,'11111222,11111222,99999999' 
TABS,ioos:station:wmo:42051:1,2017-03-04T08:30:00Z,29.6350,-93.6417,2.0,274.7797003,18.24343169,-99999.0,'11111222,11111222,99999999' 
TABS,ioos:station:wmo:42051:1,2017-03-04T09:00:00Z,29.6350,-93.6417,2.0,279.4471572,18.15622483,-99999.0,'11111222,11111222,99999999' 
TABS,ioos:station:wmo:42051:1,2017-03-04T09:30:00Z,29.6350,-93.6417,2.0,271.9775129,18.26087073,-99999.0,'11111222,11111222,99999999' 
TABS,ioos:station:wmo:42051:1,2017-03-04T10:00:00Z,29.6350,-93.6417,2.0,274.3099778,21.69133007,-99999.0,'11111222,11111222,99999999' 
TABS,ioos:station:wmo:42051:1,2017-03-04T10:30:00Z,29.6350,-93.6417,2.0,272.0475234,24.075365,-99999.0,'11111222,11111222,99999999' 
TABS,ioos:station:wmo:42051:1,2017-03-04T11:00:00Z,29.6350,-93.6417,2.0,268.9056482,24.09439146,-99999.0,'11111222,11111222,99999999' 
TABS,ioos:station:wmo:42051:1,2017-03-04T11:30:00Z,29.6350,-93.6417,2.0,265.1595835,21.80776238,-99999.0,'11111222,11111222,99999999' 
TABS,ioos:station:wmo:42051:1,2017-03-04T12:00:00Z,29.6350,-93.6417,2.0,273.2486291,27.88479873,-99999.0,'11111222,11111222,99999999' 
TABS,ioos:station:wmo:42051:1,2017-03-04T12:30:00Z,29.6350,-93.6417,2.0,273.1702014,25.31873615,-99999.0,'11111222,11111222,99999999' 
TABS,ioos:station:wmo:42051:1,2017-03-04T13:00:00Z,29.6350,-93.6417,2.0,261.6166053,23.38990594,-99999.0,'11111222,11111222,99999999' 
TABS,ioos:station:wmo:42051:1,2017-03-04T13:30:00Z,29.6350,-93.6417,2.0,264.9807091,27.77649726,-99999.0,'11111222,11111222,99999999' 
TABS,ioos:station:wmo:42051:1,2017-03-04T14:00:00Z,29.6350,-93.6417,2.0,266.600619,22.7700549,-99999.0,'11111222,11111222,99999999' 
TABS,ioos:station:wmo:42051:1,2017-03-04T14:30:00Z,29.6350,-93.6417,2.0,265.3442875,27.22983107,-99999.0,'11111222,11111222,99999999' 
TABS,ioos:station:wmo:42051:1,2017-03-04T15:00:00Z,29.6350,-93.6417,2.0,262.4024631,30.40690711,-99999.0,'11111222,11111222,99999999' 
TABS,ioos:station:wmo:42051:1,2017-03-04T15:30:00Z,29.6350,-93.6417,2.0,259.2694932,33.13944025,-99999.0,'11111222,11111222,99999999' 
TABS,ioos:station:wmo:42051:1,2017-03-04T16:00:00Z,29.6350,-93.6417,2.0,256.7910102,33.917295,-99999.0,'11111222,11111222,99999999' 